Wetterdaten: aktuell Samstag, 17.11.2018 00:15
Datum Zeit Temp. A. Feuchte A. Luftdruck Regen Wind Richtung Richtung Sonnenschein Solar Taupunkt Windben
17.11.2018 00:15 3,3 C 89 % 1035,3 hPa 0,0 l/m 0,9 km/h (0 Bft) O 94 0 min 0 W/m 1,7 C 3,2 km/h (1 Bft)
17.11.2018 00:10 3,3 C 89 % 1035,2 hPa 0,0 l/m 0,9 km/h (0 Bft) O-SO 111 0 min 0 W/m 1,7 C 4,8 km/h (1 Bft)
17.11.2018 00:05 3,4 C 89 % 1035,2 hPa 0,0 l/m 1,4 km/h (1 Bft) O-SO 115 0 min 0 W/m 1,8 C 4,8 km/h (1 Bft)
17.11.2018 00:00 3,4 C 89 % 1035,2 hPa 0,0 l/m 1,1 km/h (1 Bft) O-SO 115 0 min 0 W/m 1,8 C 6,4 km/h (2 Bft)
16.11.2018 23:55 3,4 C 89 % 1035,2 hPa 0,0 l/m 1,4 km/h (1 Bft) O-SO 121 0 min 0 W/m 1,8 C 6,4 km/h (2 Bft)
16.11.2018 23:50 3,4 C 89 % 1035,1 hPa 0,0 l/m 1,7 km/h (1 Bft) O 90 0 min 0 W/m 1,8 C 9,7 km/h (2 Bft)
16.11.2018 23:45 3,4 C 89 % 1035,1 hPa 0,0 l/m 1,3 km/h (1 Bft) O-SO 105 0 min 0 W/m 1,8 C 4,8 km/h (1 Bft)
16.11.2018 23:40 3,4 C 89 % 1035,2 hPa 0,0 l/m 1,5 km/h (1 Bft) O-SO 104 0 min 0 W/m 1,8 C 4,8 km/h (1 Bft)
16.11.2018 23:35 3,5 C 89 % 1035,1 hPa 0,0 l/m 1,0 km/h (0 Bft) O 100 0 min 0 W/m 1,9 C 4,8 km/h (1 Bft)
16.11.2018 23:30 3,6 C 89 % 1035,1 hPa 0,0 l/m 0,7 km/h (0 Bft) O 100 0 min 0 W/m 2,0 C 3,2 km/h (1 Bft)
16.11.2018 23:25 3,7 C 89 % 1035,0 hPa 0,0 l/m 2,0 km/h (1 Bft) O-NO 71 0 min 0 W/m 2,1 C 4,8 km/h (1 Bft)
16.11.2018 23:20 3,7 C 89 % 1035,0 hPa 0,0 l/m 1,4 km/h (1 Bft) O-SO 107 0 min 0 W/m 2,1 C 3,2 km/h (1 Bft)
16.11.2018 23:15 3,7 C 89 % 1035,1 hPa 0,0 l/m 1,6 km/h (1 Bft) O-NO 64 0 min 0 W/m 2,1 C 4,8 km/h (1 Bft)
16.11.2018 23:10 3,8 C 89 % 1035,0 hPa 0,0 l/m 1,9 km/h (1 Bft) O 94 0 min 0 W/m 2,2 C 6,4 km/h (2 Bft)
16.11.2018 23:05 3,8 C 89 % 1034,9 hPa 0,0 l/m 2,1 km/h (1 Bft) O 93 0 min 0 W/m 2,2 C 6,4 km/h (2 Bft)
16.11.2018 23:00 3,8 C 89 % 1035,0 hPa 0,0 l/m 0,7 km/h (0 Bft) NO 51 0 min 0 W/m 2,2 C 3,2 km/h (1 Bft)
16.11.2018 22:55 3,8 C 89 % 1034,9 hPa 0,0 l/m 2,0 km/h (1 Bft) NO 50 0 min 0 W/m 2,2 C 4,8 km/h (1 Bft)
16.11.2018 22:50 3,8 C 89 % 1034,8 hPa 0,0 l/m 1,5 km/h (1 Bft) W 267 0 min 0 W/m 2,2 C 6,4 km/h (2 Bft)
16.11.2018 22:45 3,7 C 89 % 1034,7 hPa 0,0 l/m 2,3 km/h (1 Bft) SO 126 0 min 0 W/m 2,1 C 8,0 km/h (2 Bft)
16.11.2018 22:40 3,8 C 89 % 1034,8 hPa 0,0 l/m 1,4 km/h (1 Bft) O-NO 76 0 min 0 W/m 2,2 C 4,8 km/h (1 Bft)
16.11.2018 22:35 3,8 C 88 % 1034,8 hPa 0,0 l/m 1,5 km/h (1 Bft) S-SW 211 0 min 0 W/m 2,0 C 4,8 km/h (1 Bft)
16.11.2018 22:30 3,8 C 89 % 1034,8 hPa 0,0 l/m 1,4 km/h (1 Bft) O 91 0 min 0 W/m 2,2 C 4,8 km/h (1 Bft)
16.11.2018 22:25 3,8 C 88 % 1034,8 hPa 0,0 l/m 1,5 km/h (1 Bft) O 101 0 min 0 W/m 2,0 C 3,2 km/h (1 Bft)
16.11.2018 22:20 3,8 C 88 % 1034,7 hPa 0,0 l/m 1,7 km/h (1 Bft) O-NO 67 0 min 0 W/m 2,0 C 4,8 km/h (1 Bft)
16.11.2018 22:15 3,8 C 88 % 1034,6 hPa 0,0 l/m 1,5 km/h (1 Bft) O-SO 115 0 min 0 W/m 2,0 C 4,8 km/h (1 Bft)
16.11.2018 22:10 3,8 C 88 % 1034,6 hPa 0,0 l/m 0,7 km/h (0 Bft) N 355 0 min 0 W/m 2,0 C 3,2 km/h (1 Bft)
16.11.2018 22:05 3,9 C 88 % 1034,6 hPa 0,0 l/m 0,8 km/h (0 Bft) N 355 0 min 0 W/m 2,1 C 3,2 km/h (1 Bft)
16.11.2018 22:00 3,9 C 88 % 1034,4 hPa 0,0 l/m 1,2 km/h (1 Bft) N 355 0 min 0 W/m 2,1 C 3,2 km/h (1 Bft)
16.11.2018 21:55 3,9 C 87 % 1034,3 hPa 0,0 l/m 0,8 km/h (0 Bft) N-NW 328 0 min 0 W/m 1,9 C 3,2 km/h (1 Bft)
16.11.2018 21:50 4,0 C 87 % 1034,1 hPa 0,0 l/m 1,1 km/h (1 Bft) O 92 0 min 0 W/m 2,0 C 4,8 km/h (1 Bft)
16.11.2018 21:45 4,1 C 87 % 1034,1 hPa 0,0 l/m 0,6 km/h (0 Bft) O 82 0 min 0 W/m 2,1 C 3,2 km/h (1 Bft)
16.11.2018 21:40 4,1 C 87 % 1034,2 hPa 0,0 l/m 1,0 km/h (0 Bft) O 82 0 min 0 W/m 2,1 C 3,2 km/h (1 Bft)
16.11.2018 21:35 4,2 C 87 % 1034,2 hPa 0,0 l/m 1,2 km/h (1 Bft) O 80 0 min 0 W/m 2,2 C 4,8 km/h (1 Bft)
16.11.2018 21:30 4,2 C 87 % 1034,1 hPa 0,0 l/m 0,8 km/h (0 Bft) O-SO 106 0 min 0 W/m 2,2 C 3,2 km/h (1 Bft)
16.11.2018 21:25 4,3 C 87 % 1034,2 hPa 0,0 l/m 1,5 km/h (1 Bft) O-NO 78 0 min 0 W/m 2,3 C 3,2 km/h (1 Bft)
16.11.2018 21:20 4,3 C 87 % 1034,2 hPa 0,0 l/m 1,3 km/h (1 Bft) S-SW 213 0 min 0 W/m 2,3 C 6,4 km/h (2 Bft)
16.11.2018 21:15 4,4 C 87 % 1034,1 hPa 0,0 l/m 1,2 km/h (1 Bft) O 80 0 min 0 W/m 2,4 C 4,8 km/h (1 Bft)
16.11.2018 21:10 4,4 C 87 % 1034,1 hPa 0,0 l/m 1,6 km/h (1 Bft) O-NO 65 0 min 0 W/m 2,4 C 4,8 km/h (1 Bft)
16.11.2018 21:05 4,4 C 87 % 1034,2 hPa 0,0 l/m 1,7 km/h (1 Bft) O 94 0 min 0 W/m 2,4 C 6,4 km/h (2 Bft)
16.11.2018 21:00 4,4 C 86 % 1034,1 hPa 0,0 l/m 1,6 km/h (1 Bft) O-NO 59 0 min 0 W/m 2,3 C 3,2 km/h (1 Bft)
16.11.2018 20:55 4,6 C 86 % 1034,1 hPa 0,0 l/m 1,2 km/h (1 Bft) O-NO 57 0 min 0 W/m 2,5 C 4,8 km/h (1 Bft)
16.11.2018 20:50 4,6 C 86 % 1034,0 hPa 0,0 l/m 0,9 km/h (0 Bft) O-SO 120 0 min 0 W/m 2,5 C 3,2 km/h (1 Bft)
16.11.2018 20:45 4,7 C 86 % 1034,0 hPa 0,0 l/m 1,2 km/h (1 Bft) O-SO 111 0 min 0 W/m 2,6 C 3,2 km/h (1 Bft)
16.11.2018 20:40 4,8 C 86 % 1033,9 hPa 0,0 l/m 0,9 km/h (0 Bft) O-SO 111 0 min 0 W/m 2,7 C 4,8 km/h (1 Bft)
16.11.2018 20:35 4,8 C 86 % 1034,0 hPa 0,0 l/m 1,3 km/h (1 Bft) S 185 0 min 0 W/m 2,7 C 6,4 km/h (2 Bft)
16.11.2018 20:30 4,8 C 86 % 1034,0 hPa 0,0 l/m 1,5 km/h (1 Bft) O-NO 78 0 min 0 W/m 2,7 C 6,4 km/h (2 Bft)
16.11.2018 20:25 4,8 C 86 % 1033,9 hPa 0,0 l/m 1,8 km/h (1 Bft) SO 130 0 min 0 W/m 2,7 C 6,4 km/h (2 Bft)
16.11.2018 20:20 4,9 C 86 % 1033,8 hPa 0,0 l/m 1,5 km/h (1 Bft) O 97 0 min 0 W/m 2,8 C 4,8 km/h (1 Bft)
16.11.2018 20:15 4,9 C 86 % 1033,8 hPa 0,0 l/m 1,2 km/h (1 Bft) SO 145 0 min 0 W/m 2,8 C 3,2 km/h (1 Bft)
16.11.2018 20:10 5,0 C 86 % 1033,8 hPa 0,0 l/m 1,0 km/h (0 Bft) O 101 0 min 0 W/m 2,9 C 3,2 km/h (1 Bft)
16.11.2018 20:05 5,1 C 86 % 1033,9 hPa 0,0 l/m 1,1 km/h (1 Bft) O-SO 119 0 min 0 W/m 3,0 C 3,2 km/h (1 Bft)
16.11.2018 20:00 5,1 C 86 % 1034,0 hPa 0,0 l/m 2,1 km/h (1 Bft) O-SO 120 0 min 0 W/m 3,0 C 8,0 km/h (2 Bft)
16.11.2018 19:55 5,2 C 86 % 1034,0 hPa 0,0 l/m 0,8 km/h (0 Bft) O-SO 115 0 min 0 W/m 3,1 C 3,2 km/h (1 Bft)
16.11.2018 19:50 5,2 C 86 % 1033,9 hPa 0,0 l/m 1,1 km/h (1 Bft) O-SO 109 0 min 0 W/m 3,1 C 6,4 km/h (2 Bft)
16.11.2018 19:45 5,3 C 86 % 1033,8 hPa 0,0 l/m 1,4 km/h (1 Bft) O-NO 71 0 min 0 W/m 3,2 C 4,8 km/h (1 Bft)
16.11.2018 19:40 5,3 C 87 % 1033,9 hPa 0,0 l/m 1,9 km/h (1 Bft) O-SO 115 0 min 0 W/m 3,3 C 6,4 km/h (2 Bft)
16.11.2018 19:35 5,2 C 87 % 1033,8 hPa 0,0 l/m 2,1 km/h (1 Bft) O 94 0 min 0 W/m 3,2 C 9,7 km/h (2 Bft)
16.11.2018 19:30 5,2 C 87 % 1033,8 hPa 0,0 l/m 2,1 km/h (1 Bft) SO 131 0 min 0 W/m 3,2 C 6,4 km/h (2 Bft)
16.11.2018 19:25 5,2 C 87 % 1033,8 hPa 0,0 l/m 1,2 km/h (1 Bft) O-SO 104 0 min 0 W/m 3,2 C 3,2 km/h (1 Bft)
16.11.2018 19:20 5,2 C 87 % 1033,8 hPa 0,0 l/m 1,8 km/h (1 Bft) O-NO 63 0 min 0 W/m 3,2 C 6,4 km/h (2 Bft)
16.11.2018 19:15 5,2 C 88 % 1033,8 hPa 0,0 l/m 1,3 km/h (1 Bft) O-NO 78 0 min 0 W/m 3,4 C 4,8 km/h (1 Bft)
16.11.2018 19:10 5,1 C 88 % 1033,8 hPa 0,0 l/m 1,7 km/h (1 Bft) O-SO 113 0 min 0 W/m 3,3 C 4,8 km/h (1 Bft)
16.11.2018 19:05 5,0 C 88 % 1033,7 hPa 0,0 l/m 2,1 km/h (1 Bft) O-NO 78 0 min 0 W/m 3,2 C 8,0 km/h (2 Bft)
16.11.2018 19:00 5,0 C 88 % 1033,7 hPa 0,0 l/m 1,4 km/h (1 Bft) S-SO 151 0 min 0 W/m 3,2 C 3,2 km/h (1 Bft)
16.11.2018 18:55 4,9 C 88 % 1033,7 hPa 0,0 l/m 1,5 km/h (1 Bft) O 94 0 min 0 W/m 3,1 C 4,8 km/h (1 Bft)
16.11.2018 18:50 4,9 C 87 % 1033,6 hPa 0,0 l/m 1,1 km/h (1 Bft) SO 127 0 min 0 W/m 2,9 C 3,2 km/h (1 Bft)
16.11.2018 18:45 4,9 C 87 % 1033,6 hPa 0,0 l/m 0,5 km/h (0 Bft) SO 127 0 min 0 W/m 2,9 C 3,2 km/h (1 Bft)
16.11.2018 18:40 4,9 C 87 % 1033,5 hPa 0,0 l/m 1,2 km/h (1 Bft) SO 127 0 min 0 W/m 2,9 C 4,8 km/h (1 Bft)
16.11.2018 18:35 4,8 C 87 % 1033,4 hPa 0,0 l/m 0,9 km/h (0 Bft) O 94 0 min 0 W/m 2,8 C 3,2 km/h (1 Bft)
16.11.2018 18:30 4,8 C 87 % 1033,4 hPa 0,0 l/m 1,0 km/h (0 Bft) O 94 0 min 0 W/m 2,8 C 3,2 km/h (1 Bft)
16.11.2018 18:25 4,8 C 87 % 1033,4 hPa 0,0 l/m 0,9 km/h (0 Bft) O 94 0 min 0 W/m 2,8 C 3,2 km/h (1 Bft)
16.11.2018 18:20 4,8 C 86 % 1033,2 hPa 0,0 l/m 1,0 km/h (0 Bft) O 94 0 min 0 W/m 2,7 C 3,2 km/h (1 Bft)
16.11.2018 18:15 4,8 C 86 % 1033,2 hPa 0,0 l/m 0,4 km/h (0 Bft) O 94 0 min 0 W/m 2,7 C 3,2 km/h (1 Bft)
16.11.2018 18:10 4,9 C 86 % 1033,1 hPa 0,0 l/m 0,0 km/h (0 Bft) O 93 0 min 0 W/m 2,8 C 0,0 km/h (0 Bft)
16.11.2018 18:05 4,9 C 85 % 1033,1 hPa 0,0 l/m 0,0 km/h (0 Bft) O 93 0 min 0 W/m 2,6 C 0,0 km/h (0 Bft)
16.11.2018 18:00 5,0 C 85 % 1033,0 hPa 0,0 l/m 0,0 km/h (0 Bft) O 93 0 min 0 W/m 2,7 C 0,0 km/h (0 Bft)
16.11.2018 17:55 5,1 C 85 % 1033,0 hPa 0,0 l/m 0,0 km/h (0 Bft) O 93 0 min 0 W/m 2,8 C 0,0 km/h (0 Bft)
16.11.2018 17:50 5,1 C 85 % 1033,0 hPa 0,0 l/m 0,0 km/h (0 Bft) O 93 0 min 0 W/m 2,8 C 0,0 km/h (0 Bft)
16.11.2018 17:45 5,2 C 84 % 1032,9 hPa 0,0 l/m 0,1 km/h (0 Bft) O 93 0 min 0 W/m 2,7 C 1,6 km/h (1 Bft)
16.11.2018 17:40 5,2 C 84 % 1032,9 hPa 0,0 l/m 0,2 km/h (0 Bft) O 93 0 min 0 W/m 2,7 C 1,6 km/h (1 Bft)
16.11.2018 17:35 5,3 C 84 % 1032,9 hPa 0,0 l/m 0,2 km/h (0 Bft) O 93 0 min 0 W/m 2,8 C 1,6 km/h (1 Bft)
16.11.2018 17:30 5,4 C 84 % 1032,9 hPa 0,0 l/m 0,6 km/h (0 Bft) O 93 0 min 0 W/m 2,9 C 1,6 km/h (1 Bft)
16.11.2018 17:25 5,5 C 83 % 1032,9 hPa 0,0 l/m 0,5 km/h (0 Bft) O 93 0 min 0 W/m 2,8 C 1,6 km/h (1 Bft)
16.11.2018 17:20 5,6 C 83 % 1033,1 hPa 0,0 l/m 0,0 km/h (0 Bft) O 93 0 min 0 W/m 2,9 C 1,6 km/h (1 Bft)
16.11.2018 17:15 5,7 C 83 % 1033,1 hPa 0,0 l/m 0,3 km/h (0 Bft) O 93 0 min 0 W/m 3,0 C 1,6 km/h (1 Bft)
16.11.2018 17:10 5,8 C 83 % 1033,1 hPa 0,0 l/m 1,1 km/h (1 Bft) O 93 0 min 0 W/m 3,1 C 3,2 km/h (1 Bft)
16.11.2018 17:05 5,9 C 83 % 1033,2 hPa 0,0 l/m 1,1 km/h (1 Bft) O 93 0 min 0 W/m 3,2 C 3,2 km/h (1 Bft)
16.11.2018 17:00 6,1 C 83 % 1033,1 hPa 0,0 l/m 0,3 km/h (0 Bft) O 93 0 min 0 W/m 3,4 C 1,6 km/h (1 Bft)
16.11.2018 16:55 6,2 C 82 % 1033,0 hPa 0,0 l/m 1,0 km/h (0 Bft) O 93 0 min 0 W/m 3,4 C 3,2 km/h (1 Bft)
16.11.2018 16:50 6,3 C 82 % 1033,0 hPa 0,0 l/m 1,0 km/h (0 Bft) O 88 0 min 0 W/m 3,5 C 3,2 km/h (1 Bft)
16.11.2018 16:45 6,4 C 82 % 1032,8 hPa 0,0 l/m 0,9 km/h (0 Bft) O 88 0 min 0 W/m 3,6 C 3,2 km/h (1 Bft)
16.11.2018 16:40 6,6 C 81 % 1032,8 hPa 0,0 l/m 1,4 km/h (1 Bft) O 88 0 min 0 W/m 3,6 C 3,2 km/h (1 Bft)
16.11.2018 16:35 6,7 C 81 % 1032,8 hPa 0,0 l/m 1,4 km/h (1 Bft) O 88 0 min 0 W/m 3,7 C 3,2 km/h (1 Bft)
16.11.2018 16:30 6,8 C 81 % 1032,7 hPa 0,0 l/m 1,2 km/h (1 Bft) O 88 0 min 0 W/m 3,8 C 3,2 km/h (1 Bft)
16.11.2018 16:25 6,9 C 80 % 1032,6 hPa 0,0 l/m 0,7 km/h (0 Bft) SO 126 0 min 1 W/m 3,7 C 1,6 km/h (1 Bft)
16.11.2018 16:20 7,1 C 80 % 1032,5 hPa 0,0 l/m 0,7 km/h (0 Bft) SO 126 0 min 5 W/m 3,9 C 3,2 km/h (1 Bft)
16.11.2018 16:15 7,2 C 79 % 1032,6 hPa 0,0 l/m 0,6 km/h (0 Bft) SO 126 0 min 7 W/m 3,8 C 1,6 km/h (1 Bft)
16.11.2018 16:10 7,4 C 79 % 1032,6 hPa 0,0 l/m 0,7 km/h (0 Bft) SO 126 0 min 9 W/m 4,0 C 1,6 km/h (1 Bft)
16.11.2018 16:05 7,5 C 79 % 1032,6 hPa 0,0 l/m 1,1 km/h (1 Bft) SO 126 5 min 11 W/m 4,1 C 4,8 km/h (1 Bft)
16.11.2018 16:00 7,7 C 78 % 1032,7 hPa 0,0 l/m 1,1 km/h (1 Bft) NO 39 0 min 12 W/m 4,1 C 3,2 km/h (1 Bft)
16.11.2018 15:55 7,8 C 78 % 1032,7 hPa 0,0 l/m 0,8 km/h (0 Bft) NO 39 0 min 14 W/m 4,2 C 3,2 km/h (1 Bft)
16.11.2018 15:50 7,9 C 77 % 1032,6 hPa 0,0 l/m 1,3 km/h (1 Bft) NO 38 0 min 16 W/m 4,1 C 3,2 km/h (1 Bft)
16.11.2018 15:45 8,1 C 77 % 1032,6 hPa 0,0 l/m 2,0 km/h (1 Bft) NO 43 0 min 17 W/m 4,3 C 4,8 km/h (1 Bft)
16.11.2018 15:40 8,2 C 77 % 1032,6 hPa 0,0 l/m 2,0 km/h (1 Bft) N-NO 12 0 min 19 W/m 4,4 C 4,8 km/h (1 Bft)
16.11.2018 15:35 8,3 C 76 % 1032,5 hPa 0,0 l/m 1,1 km/h (1 Bft) O 94 0 min 20 W/m 4,3 C 4,8 km/h (1 Bft)
16.11.2018 15:30 8,4 C 76 % 1032,5 hPa 0,0 l/m 2,1 km/h (1 Bft) O 84 0 min 22 W/m 4,4 C 4,8 km/h (1 Bft)
16.11.2018 15:25 8,5 C 75 % 1032,5 hPa 0,0 l/m 2,2 km/h (1 Bft) S-SO 155 0 min 24 W/m 4,3 C 4,8 km/h (1 Bft)
16.11.2018 15:20 8,7 C 75 % 1032,5 hPa 0,0 l/m 1,4 km/h (1 Bft) O 94 0 min 25 W/m 4,5 C 4,8 km/h (1 Bft)
16.11.2018 15:15 8,8 C 74 % 1032,4 hPa 0,0 l/m 2,1 km/h (1 Bft) SO 135 0 min 26 W/m 4,4 C 4,8 km/h (1 Bft)
16.11.2018 15:10 8,9 C 74 % 1032,4 hPa 0,0 l/m 1,4 km/h (1 Bft) O 89 0 min 29 W/m 4,5 C 4,8 km/h (1 Bft)
16.11.2018 15:05 9,1 C 74 % 1032,4 hPa 0,0 l/m 1,9 km/h (1 Bft) O-SO 109 0 min 29 W/m 4,7 C 4,8 km/h (1 Bft)
16.11.2018 15:00 9,2 C 74 % 1032,4 hPa 0,0 l/m 2,1 km/h (1 Bft) O-SO 111 0 min 30 W/m 4,8 C 6,4 km/h (2 Bft)
16.11.2018 14:55 9,3 C 73 % 1032,4 hPa 0,0 l/m 1,9 km/h (1 Bft) O-SO 105 0 min 34 W/m 4,7 C 4,8 km/h (1 Bft)
16.11.2018 14:50 9,4 C 73 % 1032,5 hPa 0,0 l/m 2,3 km/h (1 Bft) NO 56 0 min 36 W/m 4,8 C 8,0 km/h (2 Bft)
16.11.2018 14:45 9,4 C 73 % 1032,5 hPa 0,0 l/m 2,7 km/h (1 Bft) SW 234 0 min 55 W/m 4,8 C 9,7 km/h (2 Bft)
16.11.2018 14:40 9,4 C 74 % 1032,4 hPa 0,0 l/m 1,4 km/h (1 Bft) S 169 0 min 42 W/m 5,0 C 3,2 km/h (1 Bft)
16.11.2018 14:35 9,4 C 73 % 1032,4 hPa 0,0 l/m 1,9 km/h (1 Bft) S-SO 156 0 min 58 W/m 4,8 C 4,8 km/h (1 Bft)
16.11.2018 14:30 9,3 C 73 % 1032,3 hPa 0,0 l/m 3,5 km/h (1 Bft) W-SW 243 0 min 45 W/m 4,7 C 11,3 km/h (2 Bft)
16.11.2018 14:25 9,4 C 73 % 1032,2 hPa 0,0 l/m 2,4 km/h (1 Bft) O-SO 116 0 min 43 W/m 4,8 C 6,4 km/h (2 Bft)
16.11.2018 14:20 9,4 C 73 % 1032,3 hPa 0,0 l/m 2,9 km/h (1 Bft) O-NO 74 0 min 43 W/m 4,8 C 8,0 km/h (2 Bft)
16.11.2018 14:15 9,3 C 73 % 1032,3 hPa 0,0 l/m 2,8 km/h (1 Bft) SO 130 0 min 50 W/m 4,7 C 8,0 km/h (2 Bft)
16.11.2018 14:10 9,3 C 73 % 1032,3 hPa 0,0 l/m 2,9 km/h (1 Bft) NW 320 0 min 65 W/m 4,7 C 8,0 km/h (2 Bft)
16.11.2018 14:05 9,4 C 74 % 1032,2 hPa 0,0 l/m 2,1 km/h (1 Bft) NO 42 0 min 72 W/m 5,0 C 4,8 km/h (1 Bft)
16.11.2018 14:00 9,5 C 74 % 1032,0 hPa 0,0 l/m 2,1 km/h (1 Bft) O-NO 72 0 min 95 W/m 5,1 C 4,8 km/h (1 Bft)
16.11.2018 13:55 9,4 C 74 % 1031,9 hPa 0,0 l/m 3,2 km/h (1 Bft) O 86 0 min 80 W/m 5,0 C 12,9 km/h (3 Bft)
16.11.2018 13:50 9,5 C 72 % 1032,0 hPa 0,0 l/m 3,3 km/h (1 Bft) W 276 0 min 75 W/m 4,7 C 11,3 km/h (2 Bft)
16.11.2018 13:45 9,5 C 74 % 1032,1 hPa 0,0 l/m 2,6 km/h (1 Bft) O-SO 113 0 min 74 W/m 5,1 C 8,0 km/h (2 Bft)
16.11.2018 13:40 9,7 C 72 % 1032,1 hPa 0,0 l/m 3,4 km/h (1 Bft) O-SO 116 0 min 95 W/m 4,9 C 9,7 km/h (2 Bft)
16.11.2018 13:35 10,0 C 72 % 1032,1 hPa 0,0 l/m 2,2 km/h (1 Bft) O-SO 113 0 min 135 W/m 5,2 C 4,8 km/h (1 Bft)
16.11.2018 13:30 10,1 C 72 % 1032,1 hPa 0,0 l/m 2,1 km/h (1 Bft) O-SO 119 5 min 158 W/m 5,3 C 6,4 km/h (2 Bft)
16.11.2018 13:25 10,1 C 73 % 1032,1 hPa 0,0 l/m 1,7 km/h (1 Bft) O 83 5 min 159 W/m 5,5 C 4,8 km/h (1 Bft)
16.11.2018 13:20 9,8 C 74 % 1032,1 hPa 0,0 l/m 3,0 km/h (1 Bft) W 259 5 min 181 W/m 5,4 C 9,7 km/h (2 Bft)
16.11.2018 13:15 9,7 C 72 % 1032,1 hPa 0,0 l/m 4,5 km/h (1 Bft) SO 131 5 min 187 W/m 4,9 C 12,9 km/h (3 Bft)
16.11.2018 13:10 9,5 C 72 % 1032,1 hPa 0,0 l/m 4,1 km/h (1 Bft) S 187 5 min 180 W/m 4,7 C 12,9 km/h (3 Bft)
16.11.2018 13:05 9,5 C 72 % 1032,1 hPa 0,0 l/m 4,7 km/h (1 Bft) O-SO 120 0 min 147 W/m 4,7 C 11,3 km/h (2 Bft)
16.11.2018 13:00 9,4 C 73 % 1032,1 hPa 0,0 l/m 3,7 km/h (1 Bft) S-SW 213 5 min 186 W/m 4,8 C 8,0 km/h (2 Bft)
16.11.2018 12:55 9,3 C 73 % 1032,0 hPa 0,0 l/m 5,0 km/h (1 Bft) SW 217 5 min 214 W/m 4,7 C 17,7 km/h (3 Bft)
16.11.2018 12:50 9,3 C 74 % 1032,1 hPa 0,0 l/m 3,7 km/h (1 Bft) SW 217 5 min 219 W/m 4,9 C 9,7 km/h (2 Bft)
16.11.2018 12:45 9,2 C 74 % 1032,1 hPa 0,0 l/m 3,0 km/h (1 Bft) S 183 5 min 220 W/m 4,8 C 9,7 km/h (2 Bft)
16.11.2018 12:40 8,9 C 75 % 1032,0 hPa 0,0 l/m 4,5 km/h (1 Bft) O 98 5 min 179 W/m 4,7 C 17,7 km/h (3 Bft)
16.11.2018 12:35 8,8 C 75 % 1032,0 hPa 0,0 l/m 4,7 km/h (1 Bft) S-SW 202 0 min 80 W/m 4,6 C 12,9 km/h (3 Bft)
16.11.2018 12:30 8,9 C 74 % 1032,0 hPa 0,0 l/m 4,9 km/h (1 Bft) O-SO 119 0 min 58 W/m 4,5 C 17,7 km/h (3 Bft)
16.11.2018 12:25 9,0 C 75 % 1032,0 hPa 0,0 l/m 2,7 km/h (1 Bft) S-SO 165 5 min 177 W/m 4,8 C 6,4 km/h (2 Bft)
16.11.2018 12:20 8,9 C 76 % 1032,0 hPa 0,0 l/m 4,5 km/h (1 Bft) S 189 5 min 193 W/m 4,9 C 16,1 km/h (3 Bft)
16.11.2018 12:15 9,1 C 75 % 1032,0 hPa 0,0 l/m 4,1 km/h (1 Bft) S 179 5 min 228 W/m 4,9 C 16,1 km/h (3 Bft)
16.11.2018 12:10 9,1 C 76 % 1032,0 hPa 0,0 l/m 3,8 km/h (1 Bft) O-SO 119 5 min 249 W/m 5,1 C 9,7 km/h (2 Bft)
16.11.2018 12:05 9,1 C 78 % 1032,1 hPa 0,0 l/m 3,1 km/h (1 Bft) O-SO 121 5 min 238 W/m 5,5 C 9,7 km/h (2 Bft)
16.11.2018 12:00 8,8 C 79 % 1032,0 hPa 0,0 l/m 3,4 km/h (1 Bft) O 86 5 min 203 W/m 5,4 C 11,3 km/h (2 Bft)
16.11.2018 11:55 8,7 C 79 % 1032,0 hPa 0,0 l/m 3,4 km/h (1 Bft) S-SO 158 5 min 169 W/m 5,3 C 11,3 km/h (2 Bft)
16.11.2018 11:50 8,7 C 81 % 1031,9 hPa 0,0 l/m 2,2 km/h (1 Bft) O-NO 58 0 min 151 W/m 5,6 C 4,8 km/h (1 Bft)
16.11.2018 11:45 8,6 C 81 % 1031,9 hPa 0,0 l/m 2,6 km/h (1 Bft) SO 140 5 min 184 W/m 5,5 C 9,7 km/h (2 Bft)
16.11.2018 11:40 8,5 C 83 % 1032,2 hPa 0,0 l/m 1,5 km/h (1 Bft) S-SW 202 5 min 196 W/m 5,8 C 4,8 km/h (1 Bft)
16.11.2018 11:35 8,3 C 82 % 1032,2 hPa 0,0 l/m 1,8 km/h (1 Bft) S-SO 157 5 min 181 W/m 5,4 C 6,4 km/h (2 Bft)
16.11.2018 11:30 8,1 C 83 % 1032,1 hPa 0,0 l/m 2,9 km/h (1 Bft) SO 133 5 min 203 W/m 5,4 C 8,0 km/h (2 Bft)
16.11.2018 11:25 7,9 C 85 % 1032,1 hPa 0,0 l/m 1,4 km/h (1 Bft) O-NO 70 5 min 230 W/m 5,5 C 6,4 km/h (2 Bft)
16.11.2018 11:20 7,7 C 86 % 1032,2 hPa 0,0 l/m 2,1 km/h (1 Bft) S-SW 204 5 min 232 W/m 5,5 C 6,4 km/h (2 Bft)
16.11.2018 11:15 7,6 C 86 % 1032,2 hPa 0,0 l/m 1,8 km/h (1 Bft) O 94 5 min 210 W/m 5,4 C 4,8 km/h (1 Bft)
16.11.2018 11:10 7,4 C 87 % 1032,1 hPa 0,0 l/m 2,2 km/h (1 Bft) S-SO 163 0 min 125 W/m 5,4 C 6,4 km/h (2 Bft)
16.11.2018 11:05 7,3 C 88 % 1032,2 hPa 0,0 l/m 1,8 km/h (1 Bft) O-SO 111 0 min 129 W/m 5,4 C 4,8 km/h (1 Bft)
16.11.2018 11:00 7,1 C 88 % 1032,2 hPa 0,0 l/m 1,9 km/h (1 Bft) S 187 0 min 81 W/m 5,2 C 6,4 km/h (2 Bft)
16.11.2018 10:55 6,9 C 89 % 1032,2 hPa 0,0 l/m 1,4 km/h (1 Bft) SO 130 0 min 152 W/m 5,2 C 12,9 km/h (3 Bft)
16.11.2018 10:50 6,8 C 90 % 1032,2 hPa 0,0 l/m 2,0 km/h (1 Bft) S-SO 155 5 min 208 W/m 5,3 C 6,4 km/h (2 Bft)
16.11.2018 10:45 6,5 C 92 % 1032,2 hPa 0,0 l/m 1,2 km/h (1 Bft) SO 130 5 min 182 W/m 5,3 C 3,2 km/h (1 Bft)
16.11.2018 10:40 6,3 C 92 % 1032,1 hPa 0,0 l/m 2,1 km/h (1 Bft) O-SO 113 0 min 144 W/m 5,1 C 8,0 km/h (2 Bft)
16.11.2018 10:35 6,1 C 93 % 1032,1 hPa 0,0 l/m 1,4 km/h (1 Bft) S-SW 209 5 min 170 W/m 5,1 C 6,4 km/h (2 Bft)
16.11.2018 10:30 5,9 C 94 % 1032,1 hPa 0,0 l/m 2,2 km/h (1 Bft) N-NO 33 5 min 186 W/m 5,0 C 4,8 km/h (1 Bft)
16.11.2018 10:25 5,8 C 94 % 1032,0 hPa 0,0 l/m 1,2 km/h (1 Bft) SW 232 5 min 181 W/m 4,9 C 4,8 km/h (1 Bft)
16.11.2018 10:20 5,6 C 95 % 1031,9 hPa 0,0 l/m 1,8 km/h (1 Bft) O-SO 108 5 min 168 W/m 4,9 C 4,8 km/h (1 Bft)
16.11.2018 10:15 5,3 C 95 % 1031,9 hPa 0,0 l/m 1,4 km/h (1 Bft) O 97 5 min 140 W/m 4,6 C 4,8 km/h (1 Bft)
16.11.2018 10:10 4,9 C 95 % 1031,9 hPa 0,0 l/m 1,0 km/h (0 Bft) O 97 5 min 142 W/m 4,2 C 4,8 km/h (1 Bft)
16.11.2018 10:05 4,8 C 95 % 1031,9 hPa 0,0 l/m 1,2 km/h (1 Bft) O-SO 114 0 min 122 W/m 4,1 C 6,4 km/h (2 Bft)
16.11.2018 10:00 4,4 C 95 % 1031,7 hPa 0,0 l/m 0,5 km/h (0 Bft) O-SO 113 0 min 54 W/m 3,7 C 4,8 km/h (1 Bft)
16.11.2018 09:55 4,3 C 95 % 1031,8 hPa 0,0 l/m 0,9 km/h (0 Bft) O-SO 113 0 min 40 W/m 3,6 C 3,2 km/h (1 Bft)
16.11.2018 09:50 4,2 C 95 % 1031,7 hPa 0,0 l/m 1,5 km/h (1 Bft) O-SO 116 0 min 39 W/m 3,5 C 6,4 km/h (2 Bft)
16.11.2018 09:45 4,1 C 95 % 1031,7 hPa 0,0 l/m 1,3 km/h (1 Bft) S-SO 166 0 min 40 W/m 3,4 C 4,8 km/h (1 Bft)
16.11.2018 09:40 4,1 C 95 % 1031,7 hPa 0,0 l/m 0,7 km/h (0 Bft) O 98 0 min 40 W/m 3,4 C 3,2 km/h (1 Bft)
16.11.2018 09:35 3,9 C 95 % 1031,6 hPa 0,0 l/m 1,3 km/h (1 Bft) O 97 0 min 35 W/m 3,2 C 4,8 km/h (1 Bft)
16.11.2018 09:30 3,8 C 95 % 1031,8 hPa 0,0 l/m 0,4 km/h (0 Bft) O 100 0 min 34 W/m 3,1 C 3,2 km/h (1 Bft)
16.11.2018 09:25 3,8 C 95 % 1031,8 hPa 0,0 l/m 0,1 km/h (0 Bft) O 100 0 min 33 W/m 3,1 C 3,2 km/h (1 Bft)
16.11.2018 09:20 3,7 C 95 % 1031,8 hPa 0,0 l/m 0,1 km/h (0 Bft) O 100 0 min 32 W/m 3,0 C 1,6 km/h (1 Bft)
16.11.2018 09:15 3,7 C 95 % 1031,7 hPa 0,0 l/m 0,2 km/h (0 Bft) O 100 0 min 32 W/m 3,0 C 3,2 km/h (1 Bft)
16.11.2018 09:10 3,6 C 95 % 1031,6 hPa 0,0 l/m 0,2 km/h (0 Bft) O 100 0 min 30 W/m 2,9 C 1,6 km/h (1 Bft)
16.11.2018 09:05 3,6 C 95 % 1031,6 hPa 0,0 l/m 0,2 km/h (0 Bft) O 94 0 min 30 W/m 2,9 C 3,2 km/h (1 Bft)
16.11.2018 09:00 3,4 C 95 % 1031,7 hPa 0,0 l/m 0,3 km/h (0 Bft) O 93 0 min 29 W/m 2,7 C 3,2 km/h (1 Bft)
16.11.2018 08:55 3,4 C 95 % 1031,6 hPa 0,0 l/m 0,4 km/h (0 Bft) O 81 0 min 27 W/m 2,7 C 1,6 km/h (1 Bft)
16.11.2018 08:50 3,3 C 95 % 1031,5 hPa 0,0 l/m 0,1 km/h (0 Bft) O 86 0 min 26 W/m 2,6 C 1,6 km/h (1 Bft)
16.11.2018 08:45 3,3 C 95 % 1031,3 hPa 0,0 l/m 0,3 km/h (0 Bft) O 86 0 min 25 W/m 2,6 C 3,2 km/h (1 Bft)
16.11.2018 08:40 3,3 C 95 % 1031,3 hPa 0,0 l/m 0,6 km/h (0 Bft) O 86 0 min 24 W/m 2,6 C 3,2 km/h (1 Bft)
16.11.2018 08:35 3,2 C 95 % 1031,2 hPa 0,2 l/m 0,3 km/h (0 Bft) O 79 0 min 21 W/m 2,5 C 3,2 km/h (1 Bft)
16.11.2018 08:30 3,2 C 95 % 1031,2 hPa 0,0 l/m 0,5 km/h (0 Bft) O-NO 78 0 min 19 W/m 2,5 C 3,2 km/h (1 Bft)
16.11.2018 08:25 3,1 C 95 % 1031,1 hPa 0,0 l/m 0,6 km/h (0 Bft) O-NO 74 0 min 18 W/m 2,4 C 4,8 km/h (1 Bft)
16.11.2018 08:20 3,1 C 95 % 1031,1 hPa 0,0 l/m 0,4 km/h (0 Bft) O 90 0 min 16 W/m 2,4 C 4,8 km/h (1 Bft)
16.11.2018 08:15 3,0 C 95 % 1030,9 hPa 0,0 l/m 0,1 km/h (0 Bft) O 85 0 min 13 W/m 2,3 C 1,6 km/h (1 Bft)
16.11.2018 08:10 2,9 C 95 % 1030,9 hPa 0,0 l/m 0,0 km/h (0 Bft) O 85 0 min 12 W/m 2,2 C 1,6 km/h (1 Bft)
16.11.2018 08:05 2,9 C 95 % 1030,7 hPa 0,0 l/m 0,5 km/h (0 Bft) O 85 0 min 9 W/m 2,2 C 1,6 km/h (1 Bft)
16.11.2018 08:00 2,9 C 95 % 1030,8 hPa 0,0 l/m 0,3 km/h (0 Bft) O 85 0 min 7 W/m 2,2 C 1,6 km/h (1 Bft)
16.11.2018 07:55 2,9 C 95 % 1030,8 hPa 0,0 l/m 0,1 km/h (0 Bft) O 80 0 min 5 W/m 2,2 C 1,6 km/h (1 Bft)
16.11.2018 07:50 2,9 C 95 % 1030,8 hPa 0,0 l/m 0,0 km/h (0 Bft) O 80 0 min 0 W/m 2,2 C 0,0 km/h (0 Bft)
16.11.2018 07:45 3,0 C 95 % 1030,8 hPa 0,0 l/m 0,0 km/h (0 Bft) O 80 0 min 0 W/m 2,3 C 0,0 km/h (0 Bft)
16.11.2018 07:40 3,1 C 95 % 1030,7 hPa 0,0 l/m 0,0 km/h (0 Bft) O 80 0 min 0 W/m 2,4 C 0,0 km/h (0 Bft)
16.11.2018 07:35 3,1 C 95 % 1030,7 hPa 0,0 l/m 0,0 km/h (0 Bft) O 80 0 min 0 W/m 2,4 C 0,0 km/h (0 Bft)
16.11.2018 07:30 3,1 C 95 % 1030,6 hPa 0,0 l/m 0,4 km/h (0 Bft) O 80 0 min 0 W/m 2,4 C 3,2 km/h (1 Bft)
16.11.2018 07:25 3,1 C 95 % 1030,5 hPa 0,0 l/m 0,3 km/h (0 Bft) NO 53 0 min 0 W/m 2,4 C 3,2 km/h (1 Bft)
16.11.2018 07:20 3,1 C 95 % 1030,5 hPa 0,0 l/m 0,1 km/h (0 Bft) O-NO 74 0 min 0 W/m 2,4 C 1,6 km/h (1 Bft)
16.11.2018 07:15 3,1 C 95 % 1030,4 hPa 0,0 l/m 0,3 km/h (0 Bft) O-NO 73 0 min 0 W/m 2,4 C 3,2 km/h (1 Bft)
16.11.2018 07:10 3,1 C 94 % 1030,3 hPa 0,0 l/m 0,8 km/h (0 Bft) O 79 0 min 0 W/m 2,2 C 3,2 km/h (1 Bft)
16.11.2018 07:05 3,1 C 94 % 1030,3 hPa 0,0 l/m 0,2 km/h (0 Bft) O 84 0 min 0 W/m 2,2 C 3,2 km/h (1 Bft)
16.11.2018 07:00 3,1 C 95 % 1030,1 hPa 0,0 l/m 0,2 km/h (0 Bft) O 86 0 min 0 W/m 2,4 C 1,6 km/h (1 Bft)
16.11.2018 06:55 3,1 C 95 % 1030,1 hPa 0,0 l/m 0,0 km/h (0 Bft) O 86 0 min 0 W/m 2,4 C 1,6 km/h (1 Bft)
16.11.2018 06:50 3,2 C 95 % 1030,0 hPa 0,0 l/m 0,2 km/h (0 Bft) O 86 0 min 0 W/m 2,5 C 1,6 km/h (1 Bft)
16.11.2018 06:45 3,2 C 95 % 1030,0 hPa 0,0 l/m 0,3 km/h (0 Bft) O 84 0 min 0 W/m 2,5 C 3,2 km/h (1 Bft)
16.11.2018 06:40 3,2 C 94 % 1030,0 hPa 0,0 l/m 0,1 km/h (0 Bft) SO 145 0 min 0 W/m 2,3 C 1,6 km/h (1 Bft)
16.11.2018 06:35 3,3 C 94 % 1030,0 hPa 0,0 l/m 0,1 km/h (0 Bft) O-SO 116 0 min 0 W/m 2,4 C 1,6 km/h (1 Bft)
16.11.2018 06:30 3,3 C 94 % 1029,9 hPa 0,0 l/m 0,2 km/h (0 Bft) O-SO 116 0 min 0 W/m 2,4 C 3,2 km/h (1 Bft)
16.11.2018 06:25 3,3 C 94 % 1030,0 hPa 0,0 l/m 0,1 km/h (0 Bft) O-SO 116 0 min 0 W/m 2,4 C 1,6 km/h (1 Bft)
16.11.2018 06:20 3,4 C 94 % 1030,0 hPa 0,0 l/m 0,1 km/h (0 Bft) O-SO 116 0 min 0 W/m 2,5 C 1,6 km/h (1 Bft)
16.11.2018 06:15 3,4 C 94 % 1029,9 hPa 0,0 l/m 0,0 km/h (0 Bft) O-SO 116 0 min 0 W/m 2,5 C 1,6 km/h (1 Bft)
16.11.2018 06:10 3,5 C 95 % 1030,0 hPa 0,0 l/m 0,3 km/h (0 Bft) O-SO 117 0 min 0 W/m 2,8 C 3,2 km/h (1 Bft)
16.11.2018 06:05 3,5 C 94 % 1029,9 hPa 0,0 l/m 0,4 km/h (0 Bft) SO 125 0 min 0 W/m 2,6 C 3,2 km/h (1 Bft)
16.11.2018 06:00 3,6 C 94 % 1029,9 hPa 0,0 l/m 0,6 km/h (0 Bft) W-SW 254 0 min 0 W/m 2,7 C 3,2 km/h (1 Bft)
16.11.2018 05:55 3,6 C 94 % 1029,9 hPa 0,0 l/m 0,3 km/h (0 Bft) SO 132 0 min 0 W/m 2,7 C 3,2 km/h (1 Bft)
16.11.2018 05:50 3,6 C 94 % 1029,7 hPa 0,0 l/m 0,3 km/h (0 Bft) O 96 0 min 0 W/m 2,7 C 1,6 km/h (1 Bft)
16.11.2018 05:45 3,6 C 94 % 1029,8 hPa 0,0 l/m 1,1 km/h (1 Bft) O 96 0 min 0 W/m 2,7 C 4,8 km/h (1 Bft)
16.11.2018 05:40 3,6 C 94 % 1029,7 hPa 0,0 l/m 0,2 km/h (0 Bft) SO 124 0 min 0 W/m 2,7 C 1,6 km/h (1 Bft)
16.11.2018 05:35 3,7 C 94 % 1029,8 hPa 0,0 l/m 0,0 km/h (0 Bft) O-SO 109 0 min 0 W/m 2,8 C 0,0 km/h (0 Bft)
16.11.2018 05:30 3,7 C 94 % 1029,7 hPa 0,0 l/m 0,0 km/h (0 Bft) O-SO 112 0 min 0 W/m 2,8 C 3,2 km/h (1 Bft)
16.11.2018 05:25 3,8 C 94 % 1029,7 hPa 0,0 l/m 0,0 km/h (0 Bft) O-SO 112 0 min 0 W/m 2,9 C 1,6 km/h (1 Bft)
16.11.2018 05:20 3,8 C 94 % 1029,6 hPa 0,0 l/m 0,0 km/h (0 Bft) O-SO 112 0 min 0 W/m 2,9 C 1,6 km/h (1 Bft)
16.11.2018 05:15 3,9 C 94 % 1029,6 hPa 0,0 l/m 0,0 km/h (0 Bft) O-SO 112 0 min 0 W/m 3,0 C 1,6 km/h (1 Bft)
16.11.2018 05:10 3,9 C 94 % 1029,6 hPa 0,0 l/m 1,6 km/h (1 Bft) O-SO 112 0 min 0 W/m 3,0 C 4,8 km/h (1 Bft)
16.11.2018 05:05 3,9 C 94 % 1029,5 hPa 0,0 l/m 0,0 km/h (0 Bft) O-SO 112 0 min 0 W/m 3,0 C 3,2 km/h (1 Bft)
16.11.2018 05:00 3,9 C 94 % 1029,5 hPa 0,0 l/m 0,0 km/h (0 Bft) SO 135 0 min 0 W/m 3,0 C 3,2 km/h (1 Bft)
16.11.2018 04:55 3,9 C 94 % 1029,5 hPa 0,0 l/m 0,0 km/h (0 Bft) O 90 0 min 0 W/m 3,0 C 3,2 km/h (1 Bft)
16.11.2018 04:50 3,9 C 94 % 1029,5 hPa 0,0 l/m 0,0 km/h (0 Bft) SO 135 0 min 0 W/m 3,0 C 3,2 km/h (1 Bft)
16.11.2018 04:45 4,0 C 94 % 1029,6 hPa 0,0 l/m 0,0 km/h (0 Bft) O 90 0 min 0 W/m 3,1 C 3,2 km/h (1 Bft)
16.11.2018 04:40 4,1 C 94 % 1029,5 hPa 0,0 l/m 0,0 km/h (0 Bft) O 90 0 min 0 W/m 3,2 C 1,6 km/h (1 Bft)
16.11.2018 04:35 4,1 C 94 % 1029,4 hPa 0,0 l/m 0,0 km/h (0 Bft) O-SO 112 0 min 0 W/m 3,2 C 3,2 km/h (1 Bft)
16.11.2018 04:30 4,0 C 94 % 1029,4 hPa 0,0 l/m 1,6 km/h (1 Bft) O-SO 112 0 min 0 W/m 3,1 C 4,8 km/h (1 Bft)
16.11.2018 04:25 4,0 C 94 % 1029,3 hPa 0,0 l/m 0,0 km/h (0 Bft) O 90 0 min 0 W/m 3,1 C 1,6 km/h (1 Bft)
16.11.2018 04:20 4,1 C 94 % 1029,3 hPa 0,0 l/m 0,0 km/h (0 Bft) O-SO 112 0 min 0 W/m 3,2 C 3,2 km/h (1 Bft)
16.11.2018 04:15 4,1 C 94 % 1029,3 hPa 0,0 l/m 0,0 km/h (0 Bft) O-SO 112 0 min 0 W/m 3,2 C 4,8 km/h (1 Bft)
16.11.2018 04:10 4,1 C 94 % 1029,3 hPa 0,0 l/m 0,0 km/h (0 Bft) O 90 0 min 0 W/m 3,2 C 1,6 km/h (1 Bft)
16.11.2018 04:05 4,2 C 94 % 1029,3 hPa 0,0 l/m 0,0 km/h (0 Bft) O 90 0 min 0 W/m 3,3 C 1,6 km/h (1 Bft)
16.11.2018 04:00 4,2 C 94 % 1029,3 hPa 0,0 l/m 0,0 km/h (0 Bft) O 90 0 min 0 W/m 3,3 C 1,6 km/h (1 Bft)
16.11.2018 03:55 4,3 C 94 % 1029,2 hPa 0,0 l/m 0,0 km/h (0 Bft) N-NO 22 0 min 0 W/m 3,4 C 4,8 km/h (1 Bft)
16.11.2018 03:50 4,3 C 94 % 1029,3 hPa 0,0 l/m 0,0 km/h (0 Bft) N-NO 22 0 min 0 W/m 3,4 C 1,6 km/h (1 Bft)
16.11.2018 03:45 4,3 C 94 % 1029,3 hPa 0,0 l/m 0,0 km/h (0 Bft) SO 135 0 min 0 W/m 3,4 C 3,2 km/h (1 Bft)
16.11.2018 03:40 4,4 C 94 % 1029,2 hPa 0,0 l/m 0,0 km/h (0 Bft) SO 135 0 min 0 W/m 3,5 C 6,4 km/h (2 Bft)
16.11.2018 03:35 4,4 C 94 % 1029,2 hPa 0,0 l/m 0,0 km/h (0 Bft) O-SO 112 0 min 0 W/m 3,5 C 6,4 km/h (2 Bft)
16.11.2018 03:30 4,4 C 94 % 1029,2 hPa 0,0 l/m 0,0 km/h (0 Bft) O 90 0 min 0 W/m 3,5 C 6,4 km/h (2 Bft)
16.11.2018 03:25 4,4 C 94 % 1029,1 hPa 0,0 l/m 0,0 km/h (0 Bft) W 270 0 min 0 W/m 3,5 C 3,2 km/h (1 Bft)
16.11.2018 03:20 4,4 C 94 % 1029,1 hPa 0,0 l/m 1,6 km/h (1 Bft) O-SO 112 0 min 0 W/m 3,5 C 3,2 km/h (1 Bft)
16.11.2018 03:15 4,5 C 94 % 1029,1 hPa 0,0 l/m 0,0 km/h (0 Bft) O 90 0 min 0 W/m 3,6 C 3,2 km/h (1 Bft)
16.11.2018 03:10 4,5 C 94 % 1029,1 hPa 0,0 l/m 0,0 km/h (0 Bft) O-NO 67 0 min 0 W/m 3,6 C 3,2 km/h (1 Bft)
16.11.2018 03:05 4,5 C 94 % 1028,9 hPa 0,0 l/m 0,0 km/h (0 Bft) NO 45 0 min 0 W/m 3,6 C 1,6 km/h (1 Bft)
16.11.2018 03:00 4,6 C 94 % 1029,0 hPa 0,0 l/m 0,0 km/h (0 Bft) NO 45 0 min 0 W/m 3,7 C 3,2 km/h (1 Bft)
16.11.2018 02:55 4,6 C 94 % 1028,9 hPa 0,0 l/m 1,6 km/h (1 Bft) O-NO 67 0 min 0 W/m 3,7 C 8,0 km/h (2 Bft)
16.11.2018 02:50 4,6 C 94 % 1028,8 hPa 0,0 l/m 0,0 km/h (0 Bft) O-SO 112 0 min 0 W/m 3,7 C 1,6 km/h (1 Bft)
16.11.2018 02:45 4,6 C 94 % 1028,8 hPa 0,0 l/m 0,0 km/h (0 Bft) O-SO 112 0 min 0 W/m 3,7 C 3,2 km/h (1 Bft)
16.11.2018 02:40 4,6 C 94 % 1028,8 hPa 0,0 l/m 1,6 km/h (1 Bft) O 90 0 min 0 W/m 3,7 C 3,2 km/h (1 Bft)
16.11.2018 02:35 4,6 C 94 % 1028,8 hPa 0,0 l/m 0,0 km/h (0 Bft) O 90 0 min 0 W/m 3,7 C 3,2 km/h (1 Bft)
16.11.2018 02:30 4,7 C 94 % 1028,8 hPa 0,0 l/m 0,0 km/h (0 Bft) O 90 0 min 0 W/m 3,8 C 3,2 km/h (1 Bft)
16.11.2018 02:25 4,7 C 94 % 1028,9 hPa 0,0 l/m 0,0 km/h (0 Bft) O 90 0 min 0 W/m 3,8 C 1,6 km/h (1 Bft)
16.11.2018 02:20 4,7 C 94 % 1028,9 hPa 0,0 l/m 0,0 km/h (0 Bft) NO 45 0 min 0 W/m 3,8 C 3,2 km/h (1 Bft)
16.11.2018 02:15 4,8 C 94 % 1028,9 hPa 0,0 l/m 1,6 km/h (1 Bft) O-SO 112 0 min 0 W/m 3,9 C 4,8 km/h (1 Bft)
16.11.2018 02:10 4,8 C 94 % 1028,9 hPa 0,0 l/m 0,0 km/h (0 Bft) O-SO 112 0 min 0 W/m 3,9 C 3,2 km/h (1 Bft)
16.11.2018 02:05 4,7 C 94 % 1028,9 hPa 0,0 l/m 1,6 km/h (1 Bft) O 90 0 min 0 W/m 3,8 C 6,4 km/h (2 Bft)
16.11.2018 02:00 4,7 C 94 % 1028,9 hPa 0,0 l/m 0,0 km/h (0 Bft) O 90 0 min 0 W/m 3,8 C 3,2 km/h (1 Bft)
16.11.2018 01:55 4,7 C 94 % 1028,8 hPa 0,0 l/m 0,0 km/h (0 Bft) O-NO 67 0 min 0 W/m 3,8 C 3,2 km/h (1 Bft)
16.11.2018 01:50 4,6 C 94 % 1028,9 hPa 0,0 l/m 1,6 km/h (1 Bft) O 90 0 min 0 W/m 3,7 C 6,4 km/h (2 Bft)
16.11.2018 01:45 4,6 C 94 % 1028,8 hPa 0,0 l/m 0,0 km/h (0 Bft) O 90 0 min 0 W/m 3,7 C 3,2 km/h (1 Bft)
16.11.2018 01:40 4,6 C 94 % 1028,9 hPa 0,0 l/m 0,0 km/h (0 Bft) O 90 0 min 0 W/m 3,7 C 1,6 km/h (1 Bft)
16.11.2018 01:35 4,6 C 94 % 1028,9 hPa 0,0 l/m 0,0 km/h (0 Bft) O-NO 67 0 min 0 W/m 3,7 C 1,6 km/h (1 Bft)
16.11.2018 01:30 4,6 C 94 % 1028,9 hPa 0,0 l/m 0,0 km/h (0 Bft) O 90 0 min 0 W/m 3,7 C 3,2 km/h (1 Bft)
16.11.2018 01:25 4,7 C 94 % 1028,9 hPa 0,0 l/m 0,0 km/h (0 Bft) W-SW 247 0 min 0 W/m 3,8 C 1,6 km/h (1 Bft)
16.11.2018 01:20 4,7 C 94 % 1028,8 hPa 0,0 l/m 0,0 km/h (0 Bft) SW 225 0 min 0 W/m 3,8 C 4,8 km/h (1 Bft)
16.11.2018 01:15 4,8 C 94 % 1028,9 hPa 0,0 l/m 0,0 km/h (0 Bft) S-SW 202 0 min 0 W/m 3,9 C 1,6 km/h (1 Bft)
16.11.2018 01:10 4,8 C 94 % 1028,8 hPa 0,0 l/m 0,0 km/h (0 Bft) S-SO 157 0 min 0 W/m 3,9 C 3,2 km/h (1 Bft)
16.11.2018 01:05 4,8 C 94 % 1028,9 hPa 0,0 l/m 0,0 km/h (0 Bft) S-SO 157 0 min 0 W/m 3,9 C 6,4 km/h (2 Bft)
16.11.2018 01:00 4,7 C 94 % 1028,9 hPa 0,0 l/m 0,0 km/h (0 Bft) O 90 0 min 0 W/m 3,8 C 3,2 km/h (1 Bft)
_ Min-Zeit 07:50 13:05 01:10 - 01:00 - - - - 00:10 05:35
Minimum _ 2,9 C 72 % 1028,8 hPa - 0,0 km/h (0 Bft) - - - - 1,7 C 0,0 km/h (0 Bft)
_ Max-Zeit 13:35 06:10 00:15 08:35 12:55 - - 10:10 12:10 11:40 12:30
Maximum _ 10,2 C 95 % 1035,3 hPa 0,2 l/m 5,0 km/h
SW (1 Bft)
- - 5 min 249 W/m 5,8 C 17,7 km/h
S-SO (3 Bft)
Durchschnitt _ 5,3 C 88 % 1031,8 hPa #0,2 l/m 1,1 km/h (1 Bft) O-SO - #0 min. 0 W/m 3,4 C 4,5 km/h (1 Bft)